sat.trackr.live / text

‹ back to catalog

STARLINK-36823

NORAD 68070 · 2026-042B

PAYLOAD ACTIVE UNKNOWN

§ Identity

Operator
Country
US
Launch date
2026-03-04
Launch site
AFETR
Launch vehicle
Mass (kg)
RCS (m²)

Purposes: comms

External: N2YO · Heavens-Above · Gunter

§ Orbital elements

Epoch: 2026-05-24T14:00:52.761600Z

Period
93.85 min
Inclination
53.1588°
Eccentricity
0.0001155
Mean motion
15.34395597 rev/d
Perigee alt
461.9 km
Apogee alt
463.5 km
Semi-major
6,840.9 km
B*
5.3697e-4
RAAN
183.4127°
Arg perigee
73.5291°
Mean anomaly
286.5839°
Rev number
1,396

§ Raw data

STARLINK-368231 68070U 26042B   26144.58394400  .00017807  00000+0  53697-3 0  99902 68070  53.1588 183.4127 0001155  73.5291 286.5839 15.34395597 13969

JSON: /api/v1/satellites/68070 · /tle

For live sub-satellite position, see the globe view (requires WebGL).

§ Visibility from observer

Set your observer location to see the next 7 days of passes ≥ 10°. The values pass through the URL so the page stays shareable.

No JS? Fill the form by hand. The geolocation button needs JavaScript.